Mojave, CA

9:37 AM PST on December 06, 2019 (GMT -0800)
Mojave

Weather History for KMHV - November, 2019

Change the Weather History Date:

Friday, November 15, 2019

  Actual Average Record
Temperature  
Mean Temperature 60 °F -  
Max Temperature 75 °F 65 °F 82 °F (2016)
Min Temperature 46 °F 39 °F 20 °F (1964)
Degree Days  
Heating Degree Days 4    
Growing Degree Days 10 (Base 50)    
Moisture  
Dew Point 32 °F    
Average Humidity 38    
Maximum Humidity 53    
Minimum Humidity 18    
Precipitation  
Precipitation 0.00 in - - ()
Sea Level Pressure  
Sea Level Pressure 30.10 in    
Wind  
Wind Speed 6 mph ()    
Max Wind Speed 12 mph    
Max Gust Speed -    
Visibility 9.8 miles    
Events      
Averages and records for this station are not official NWS values.
T = Trace of Precipitation, MM = Missing Value Source: Averaged Metar Reports

Daily Weather History Graph

Daily Weather History Graph

Search for Another Location

Airport or City:

Astronomy

Nov. 15, 2019 Rise Set
Actual Time 6:27 AM PST 4:46 PM PST
Civil Twilight 6:00 AM PST 5:13 PM PST
Nautical Twilight 5:29 AM PST 5:44 PM PST
Astronomical Twilight 4:59 AM PST 6:14 PM PST
Moon 7:30 PM PST (11/15) 9:24 AM PST (11/15)
Length of Visible Light 11h 13m
Length of Day
10h 19m
Waning Gibbous, 89% of the Moon is Illuminated
Nov 15
Waning Gibbous
Nov 19
Last Quarter
Nov 26
New
Dec 3
First Quarter
Dec 11
Full

Hourly Weather History & Observations

Time (PST) Temp. Windchill Dew Point Humidity Pressure Visibility Wind Dir Wind Speed Gust Speed Precip Events Conditions
12:00 AM 55.4 °F - 32.0 °F 41% 30.12 in 10.0 mi WSW 8.1 mph - N/A   Clear
12:20 AM 53.6 °F - 32.0 °F 44% 30.12 in 10.0 mi WSW 8.1 mph - N/A   Clear
12:40 AM 53.6 °F - 32.0 °F 44% 30.12 in 10.0 mi SW 8.1 mph - N/A   Clear
1:00 AM 53.6 °F - 30.2 °F 41% 30.12 in 10.0 mi WSW 8.1 mph - N/A   Clear
1:20 AM 51.8 °F - 30.2 °F 44% 30.12 in 10.0 mi West 8.1 mph - N/A   Clear
1:40 AM 50.0 °F - 30.2 °F 47% 30.12 in 10.0 mi WSW 8.1 mph - N/A   Clear
2:00 AM 50.0 °F - 30.2 °F 47% 30.11 in 10.0 mi WSW 9.2 mph - N/A   Clear
2:20 AM 50.0 °F - 30.2 °F 47% 30.11 in 10.0 mi WSW 5.8 mph - N/A   Clear
2:40 AM 50.0 °F - 30.2 °F 47% 30.10 in 10.0 mi Calm Calm - N/A   Clear
3:00 AM 48.2 °F - 28.4 °F 46% 30.11 in 10.0 mi WSW 3.5 mph - N/A   Clear
3:40 AM 46.4 °F 44.3 °F 30.2 °F 53% 30.10 in 10.0 mi West 4.6 mph - N/A   Clear
4:00 AM 48.2 °F - 30.2 °F 50% 30.10 in 10.0 mi WNW 4.6 mph - N/A   Clear
4:20 AM 50.0 °F - 30.2 °F 47% 30.11 in 10.0 mi WSW 4.6 mph - N/A   Clear
4:40 AM 48.2 °F - 28.4 °F 46% 30.10 in 10.0 mi WNW 4.6 mph - N/A   Clear
5:00 AM 48.2 °F - 30.2 °F 50% 30.10 in 10.0 mi WNW 4.6 mph - N/A   Clear
5:20 AM 50.0 °F - 32.0 °F 50% 30.10 in 10.0 mi Calm Calm - N/A   Clear
5:40 AM 51.8 °F - 32.0 °F 47% 30.11 in 10.0 mi NW 4.6 mph - N/A   Clear
6:00 AM 50.0 °F - 32.0 °F 50% 30.11 in 10.0 mi Calm Calm - N/A   Clear
6:20 AM 50.0 °F - 32.0 °F 50% 30.11 in 9.0 mi Calm Calm - N/A   Clear
6:40 AM 48.2 °F - 30.2 °F 50% 30.11 in 9.0 mi NW 3.5 mph - N/A   Clear
7:00 AM 50.0 °F - 30.2 °F 47% 30.11 in 6.0 mi WNW 4.6 mph - N/A   Haze
7:20 AM 55.4 °F - 30.2 °F 38% 30.12 in 9.0 mi Calm Calm - N/A   Clear
7:40 AM 53.6 °F - 32.0 °F 44% 30.13 in 8.0 mi NE 5.8 mph - N/A   Clear
8:20 AM 55.4 °F - 32.0 °F 41% 30.14 in 10.0 mi Calm Calm - N/A   Clear
8:40 AM 57.2 °F - 32.0 °F 38% 30.14 in 10.0 mi Calm Calm - N/A   Clear
9:00 AM 60.8 °F - 32.0 °F 34% 30.14 in 10.0 mi ENE 5.8 mph - N/A   Clear
9:20 AM 62.6 °F - 33.8 °F 34% 30.14 in 10.0 mi NE 3.5 mph - N/A   Clear
9:40 AM 64.4 °F - 35.6 °F 34% 30.14 in 10.0 mi Calm Calm - N/A   Clear
10:00 AM 68.0 °F - 35.6 °F 30% 30.13 in 10.0 mi NNE 4.6 mph - N/A   Clear
10:20 AM 68.0 °F - 33.8 °F 28% 30.13 in 10.0 mi East 8.1 mph - N/A   Clear
10:40 AM 66.2 °F - 32.0 °F 28% 30.12 in 10.0 mi East 9.2 mph - N/A   Clear
11:00 AM 66.2 °F - 32.0 °F 28% 30.12 in 10.0 mi East 8.1 mph - N/A   Clear
11:20 AM 66.2 °F - 32.0 °F 28% 30.11 in 10.0 mi ENE 8.1 mph - N/A   Clear
11:40 AM 68.0 °F - 32.0 °F 26% 30.10 in 10.0 mi ENE 6.9 mph - N/A   Clear
12:00 PM 69.8 °F - 32.0 °F 25% 30.10 in 10.0 mi NNE 4.6 mph - N/A   Clear
12:40 PM 71.6 °F - 32.0 °F 23% 30.08 in 7.0 mi Calm Calm - N/A   Clear
1:00 PM 71.6 °F - 32.0 °F 23% 30.07 in 10.0 mi Calm Calm - N/A   Clear
1:40 PM 75.2 °F - 28.4 °F 18% 30.05 in 10.0 mi West 10.4 mph - N/A   Clear
2:00 PM 73.4 °F - 28.4 °F 19% 30.05 in 10.0 mi Variable 5.8 mph - N/A   Clear
2:20 PM 71.6 °F - 30.2 °F 22% 30.05 in 10.0 mi West 6.9 mph - N/A   Clear
2:40 PM 71.6 °F - 28.4 °F 20% 30.04 in 10.0 mi WSW 5.8 mph - N/A   Clear
3:00 PM 73.4 °F - 28.4 °F 19% 30.05 in 10.0 mi WSW 3.5 mph - N/A   Clear
3:20 PM 73.4 °F - 28.4 °F 19% 30.04 in 10.0 mi West 5.8 mph - N/A   Clear
3:40 PM 71.6 °F - 28.4 °F 20% 30.05 in 10.0 mi Calm Calm - N/A   Clear
4:00 PM 71.6 °F - 28.4 °F 20% 30.04 in 10.0 mi East 8.1 mph - N/A   Clear
4:20 PM 69.8 °F - 26.6 °F 20% 30.05 in 10.0 mi ESE 5.8 mph - N/A   Clear
4:40 PM 68.0 °F - 26.6 °F 21% 30.05 in 10.0 mi Calm Calm - N/A   Clear
5:00 PM 66.2 °F - 32.0 °F 28% 30.06 in 10.0 mi NW 5.8 mph - N/A   Clear
5:40 PM 60.8 °F - 35.6 °F 39% 30.07 in 10.0 mi NW 9.2 mph - N/A   Clear
6:00 PM 60.8 °F - 37.4 °F 42% 30.07 in 10.0 mi NW 9.2 mph - N/A   Partly Cloudy
6:20 PM 59.0 °F - 37.4 °F 45% 30.07 in 10.0 mi NW 11.5 mph - N/A   Partly Cloudy
6:40 PM 59.0 °F - 37.4 °F 45% 30.07 in 10.0 mi NW 11.5 mph - N/A   Partly Cloudy
7:00 PM 57.2 °F - 37.4 °F 48% 30.07 in 10.0 mi NW 11.5 mph - N/A   Mostly Cloudy
7:20 PM 57.2 °F - 37.4 °F 48% 30.08 in 10.0 mi NW 11.5 mph - N/A   Mostly Cloudy
7:40 PM 57.2 °F - 37.4 °F 48% 30.08 in 10.0 mi NW 10.4 mph - N/A   Mostly Cloudy
8:00 PM 57.2 °F - 35.6 °F 44% 30.08 in 10.0 mi NW 10.4 mph - N/A   Partly Cloudy
8:20 PM 57.2 °F - 35.6 °F 44% 30.08 in 10.0 mi NW 10.4 mph - N/A   Clear
8:40 PM 55.4 °F - 35.6 °F 47% 30.08 in 10.0 mi NNW 9.2 mph - N/A   Clear
9:00 PM 53.6 °F - 33.8 °F 47% 30.08 in 10.0 mi NW 10.4 mph - N/A   Clear
9:20 PM 55.4 °F - 33.8 °F 44% 30.09 in 10.0 mi NW 10.4 mph - N/A   Clear
9:40 PM 53.6 °F - 32.0 °F 44% 30.09 in 10.0 mi NW 10.4 mph - N/A   Clear
10:00 PM 53.6 °F - 32.0 °F 44% 30.10 in 10.0 mi NNW 9.2 mph - N/A   Clear
10:20 PM 53.6 °F - 33.8 °F 47% 30.10 in 10.0 mi North 10.4 mph - N/A   Clear
10:40 PM 55.4 °F - 33.8 °F 44% 30.10 in 10.0 mi Calm Calm - N/A   Clear
11:00 PM 53.6 °F - 33.8 °F 47% 30.10 in 10.0 mi WNW 5.8 mph - N/A   Clear
11:20 PM 53.6 °F - 32.0 °F 44% 30.11 in 10.0 mi WNW 4.6 mph - N/A   Clear
11:40 PM 51.8 °F - 32.0 °F 47% 30.11 in 10.0 mi NW 10.4 mph - N/A   Clear